Hourly Weather Roundup
Issued by NWS Central Illinois

Home | Current Version | Previous Version | Text Only | Print | Product List | Glossary On
Versions: 1 2 3 4 5 6 7 8 9 10 11 12 13 14 15 16 17 18 19 20 21 22 23 24 25 26 27 28 29 30 31 32 33 34 35 36 37 38 39 40 41 42 43 44 45 46 47 48 49 50
000
NZUS43 KILX 010510
HWRILX

AREA WEATHER ROUNDUP
NATIONAL WEATHER SERVICE, LINCOLN IL
1200 AM CDT WED OCT 01 2014


CITY           SKY/WX    TMP DP  RH WIND       PRES   REMARKS
BLOOMINGTON    NOT AVBL
CHAMPAIGN      CLEAR     52  47  83 E12       29.98F
DECATUR        CLEAR     53  49  86 E10       29.98S
FLORA          CLEAR     62  57  83 E3        29.95S
GALESBURG      CLEAR     53  48  83 E9G17     29.95F
JACKSONVILLE   CLEAR     59  55  87 E7        29.94S FOG
LACON          CLEAR     51  46  86 E5        29.98F
LAWRENCEVILLE  CLEAR     59  55  87 NE6       29.96S
LITCHFIELD     CLEAR     61  54  76 E12       29.93S
$$


CITY           SKY/WX    TMP DP  RH WIND       PRES   REMARKS
LINCOLN        CLEAR     55  49  79 E8        29.95S
MACOMB         CLEAR     54  51  89 E7        29.96S
MATTOON        CLEAR     55  49  80 E10       29.96F
MT CARMEL AP   CLEAR     63  57  82 NE5       29.95S
OLNEY-NOBLE AP CLEAR     59  55  88 CALM      29.95S
PARIS          CLEAR     54  50  87 NE7       29.99F
PEORIA         CLEAR     56  47  71 E15       29.97S
PONTIAC        CLEAR     52  48  87 E3        30.00S
RANTOUL        CLEAR     52  46  80 E9        30.00S
ROBINSON       CLEAR     58  55  88 NE5       29.97S
SPRINGFIELD    CLEAR     58  50  75 E9        29.96R
TAYLORVILLE    CLEAR     55  50  82 E7        29.95S
$$

...REGIONAL REPORTS...


CITY           SKY/WX    TMP DP  RH WIND       PRES   REMARKS
CHICAGO O`HARE CLOUDY    55  47  74 E8        30.01F
KANKAKEE       CLEAR     47  45  91 E7        30.02F
MOLINE         NOT AVBL
MOUNT VERNON   NOT AVBL
PITTSFIELD     CLEAR     62  57  83 E6        29.92S
QUINCY         CLEAR     62  55  77 E12       29.90S
ROCKFORD       CLOUDY    53  46  77 E9        30.03F
$$


CITY           SKY/WX    TMP DP  RH WIND       PRES   REMARKS
BURLINGTON     CLEAR     57  51  80 E8        29.92S
CEDAR RAPIDS   NOT AVBL
DES MOINES     CLOUDY    65  56  72 E9        29.84S
KIRKSVILLE     MOCLDY    63  32  31 E8        29.88S
OTTUMWA        MOCLDY    59  54  83 E9        29.88F
ST LOUIS       CLEAR     69  60  73 SE9       29.91S
$$


CITY           SKY/WX    TMP DP  RH WIND       PRES   REMARKS
TERRE HAUTE    PTCLDY    55  49  80 NE7       29.98S
EVANSVILLE     CLEAR     65  59  81 CALM      29.94R
INDIANAPOLIS   PTCLDY    53  46  77 E5        29.99S
LAFAYETTE      CLEAR     49  46  90 NE5       30.02R
MADISON        CLOUDY    50  45  83 E10       30.02F
MILWAUKEE      CLOUDY    51  49  92 NW6       30.04S
$$





USA.gov is the U.S. government's official web portal to all federal, state and local government web resources and services.